TimeAKDT,TemperatureF,Dew PointF,Humidity,Sea Level PressureIn,VisibilityMPH,Wind Direction,Wind SpeedMPH,Gust SpeedMPH,PrecipitationIn,Events,Conditions,WindDirDegrees,DateUTC
12:53 AM,57.0,53.1,87,30.07,10.0,Calm,Calm,-,N/A,,Clear,0,2013-08-03 08:53:00
1:53 AM,57.0,52.0,83,30.08,10.0,Calm,Calm,-,N/A,,Clear,0,2013-08-03 09:53:00
2:53 AM,55.0,52.0,89,30.09,10.0,Calm,Calm,-,N/A,,Clear,0,2013-08-03 10:53:00
3:53 AM,54.0,50.0,86,30.09,10.0,NE,4.6,-,N/A,,Clear,40,2013-08-03 11:53:00
4:53 AM,54.0,52.0,93,30.10,10.0,Calm,Calm,-,N/A,,Overcast,0,2013-08-03 12:53:00
5:53 AM,53.1,51.1,93,30.12,10.0,Calm,Calm,-,N/A,,Partly Cloudy,0,2013-08-03 13:53:00
6:53 AM,57.0,52.0,83,30.12,10.0,NNE,3.5,-,N/A,,Overcast,30,2013-08-03 14:53:00
7:53 AM,55.9,52.0,87,30.12,10.0,Calm,Calm,-,N/A,,Overcast,0,2013-08-03 15:53:00
8:53 AM,59.0,52.0,78,30.13,10.0,Calm,Calm,-,N/A,,Overcast,0,2013-08-03 16:53:00
9:53 AM,61.0,54.0,78,30.13,10.0,Calm,Calm,-,N/A,,Mostly Cloudy,0,2013-08-03 17:53:00
10:53 AM,59.0,53.1,81,30.12,10.0,SW,8.1,-,N/A,,Partly Cloudy,220,2013-08-03 18:53:00
11:53 AM,60.1,52.0,75,30.11,10.0,WSW,13.8,-,N/A,,Scattered Clouds,240,2013-08-03 19:53:00
12:53 PM,61.0,53.1,75,30.10,10.0,WSW,13.8,-,N/A,,Clear,240,2013-08-03 20:53:00
1:53 PM,63.0,54.0,72,30.09,10.0,WSW,16.1,-,N/A,,Clear,250,2013-08-03 21:53:00
2:53 PM,69.1,55.0,61,30.07,10.0,SSW,19.6,-,N/A,,Clear,210,2013-08-03 22:53:00
3:53 PM,68.0,55.0,63,30.06,10.0,SSW,19.6,-,N/A,,Clear,210,2013-08-03 23:53:00
4:53 PM,66.9,55.0,66,30.04,10.0,SSW,17.3,-,N/A,,Clear,210,2013-08-04 00:53:00
5:53 PM,66.9,54.0,63,30.04,10.0,SW,11.5,-,N/A,,Clear,220,2013-08-04 01:53:00
6:53 PM,68.0,53.1,59,30.04,10.0,SSW,13.8,-,N/A,,Clear,200,2013-08-04 02:53:00
7:53 PM,66.9,53.1,61,30.03,10.0,SSW,17.3,-,N/A,,Overcast,210,2013-08-04 03:53:00
8:53 PM,63.0,53.1,70,30.04,10.0,SW,13.8,-,N/A,,Overcast,220,2013-08-04 04:53:00
9:53 PM,61.0,53.1,75,30.06,10.0,WSW,11.5,-,N/A,,Overcast,240,2013-08-04 05:53:00
10:53 PM,61.0,54.0,78,30.06,10.0,West,6.9,-,N/A,,Overcast,270,2013-08-04 06:53:00
11:53 PM,61.0,54.0,78,30.07,10.0,Calm,Calm,-,N/A,,Overcast,0,2013-08-04 07:53:00